Location: Easter Hill Village
(37.9235°N, 122.3444°W)
Time: 20:12:14
(UTC+00:00)

Cosmos 1943 Rocket - Pass Details

Date: 16 September 2019
Orbit: 811 x 845 km, 71.0° (Epoch: 20 October)

Event Time Altitude Azimuth Distance (km) Brightness Sun altitude
Exits shadow 12:30:47 24° 277° (W) 1,640 3.2 -16.5°
Maximum altitude 12:32:13 27° 302° (WNW) 1,536 3.2 -16.3°
Drops below altitude 10° 12:36:51 10° 359° (N) 2,419 4.8 -15.4°
Sets 12:39:41 0° 12° (NNE) 3,361 5.7 -14.8°
